Location: Bakov nad Jizerou
(50.4784°N, 14.9394°E)
Time: 14:08:50
(UTC+00:00)

Cosmos 1626 - Pass Details

Date: 16 June 2021
Orbit: 488 x 493 km, 82.5° (Epoch: 02 August)

Event Time Altitude Azimuth Distance (km) Brightness Sun altitude
Exits shadow 21:27:22 - 214° (SW) 1,882 4.7 -13.3°
Reaches altitude 10° 21:27:53 10° 217° (SW) 1,684 4.5 -13.3°
Maximum altitude 21:31:20 37° 286° (WNW) 784 3.4 -13.5°
Drops below altitude 10° 21:34:49 10° 355° (N) 1,700 6.1 -13.7°
Sets 21:37:03 0° 4° (N) 2,589 7.0 -13.8°
